Simultaneous Nadir Overpasses (SNOs) Predictions

Prediction of SNOs between METOP-B and NPP Satellite Orbit:

Table of predicted SNOs for the next 14.0 days since TLE Epoch: 4/26/2016
Index Date (METOP-B) Time (METOP-B) Lat,Lon (METOP-B) SZA (METOP-B ) Date (NPP) Time (NPP) Lat,Lon (NPP) SZA (NPP ) Distance(km) Time Diff (sec)
1 04/26/2016 11:03:36 70.37,-119.05 89.92 04/26/2016 11:03:35 70.37,-119.04 89.92 0.16 1
2 04/26/2016 11:49:21 -81.33, 114.13 106.87 04/26/2016 11:49:20 -81.33, 114.14 106.87 0.07 1
3 04/26/2016 12:40:06 81.33, -78.58 73.13 04/26/2016 12:40:05 81.33, -78.58 73.13 0.07 1
4 04/26/2016 13:30:51 -81.33, 88.73 106.88 04/26/2016 13:30:50 -81.33, 88.73 106.88 0.07 1
5 04/26/2016 14:21:36 81.33,-103.99 73.11 04/26/2016 14:21:35 81.33,-103.99 73.11 0.07 1
6 04/26/2016 15:12:21 -81.33, 63.32 106.90 04/26/2016 15:12:20 -81.33, 63.32 106.90 0.07 1
7 04/26/2016 16:03:06 81.33,-129.40 73.10 04/26/2016 16:03:05 81.33,-129.40 73.10 0.07 1
8 04/26/2016 16:53:51 -81.33, 37.91 106.92 04/26/2016 16:53:50 -81.33, 37.91 106.92 0.07 1
9 04/26/2016 17:44:35 81.33,-154.42 73.02 04/26/2016 17:44:34 81.33,-154.41 73.02 0.07 1
10 04/26/2016 18:35:20 -81.33, 12.89 106.99 04/26/2016 18:35:19 -81.33, 12.90 106.99 0.07 1
11 04/26/2016 19:26:05 81.33,-179.82 73.01 04/26/2016 19:26:04 81.33,-179.82 73.01 0.07 1
12 04/26/2016 20:16:50 -81.33, -12.51 107.01 04/26/2016 20:16:49 -81.33, -12.51 107.01 0.07 1
13 04/26/2016 21:07:35 81.33, 154.77 72.99 04/26/2016 21:07:34 81.33, 154.77 72.99 0.07 1
14 04/26/2016 21:58:20 -81.33, -37.92 107.03 04/26/2016 21:58:19 -81.33, -37.92 107.03 0.07 1
15 04/26/2016 22:49:05 81.33, 129.36 72.97 04/26/2016 22:49:04 81.33, 129.36 72.97 0.07 1
16 04/26/2016 23:39:50 -81.33, -63.33 107.05 04/26/2016 23:39:49 -81.33, -63.33 107.05 0.07 1
17 04/27/2016 00:30:35 81.33, 103.95 72.95 04/27/2016 00:30:34 81.33, 103.95 72.95 0.07 1
18 04/27/2016 01:21:20 -81.33, -88.74 107.06 04/27/2016 01:21:19 -81.33, -88.73 107.06 0.07 1
19 04/27/2016 02:12:05 81.33, 78.54 72.93 04/27/2016 02:12:04 81.33, 78.55 72.93 0.07 1
20 04/27/2016 03:02:50 -81.33,-114.15 107.08 04/27/2016 03:02:49 </
